FLOCK 4BE 23

导读 | 星芒AI

FLOCK 4BE 23 是由 Planet Labs 公司发射的 Dove 系列小型地球观测卫星之一,属于 Flock 4B 卫星群。该卫星主要用于高分辨率光学成像,支持全球范围内的土地利用监测、环境评估和农业管理等应用。它搭载多光谱传感器,能够提供 3 米分辨率的影像数据,并通过每日全球重访能力,为用户提供频繁更新的地球影像服务。FLOCK 4BE 23 于 2018 年发射,是构建 Planet 全球遥感网络的重要组成部分。

基本信息
目录编号:
60490
目录名称:
FLOCK 4BE 23
国际标识:
2024-149Y
轨道中心:
EARTH
卫星名称:
FLOCK 4BE 23
卫星全名:
FLOCK 4BE 23
卫星状态:
在轨 (已飞行432 天)
发射日期:
2024-08-16 UTC
国别 :
美国 (US)
星等 :
--
轨道信息
数据来源 国际轨道数据
星历时间: 2025-10-22T12:03:22+0800
10小时前
查看轨道信息
半长轴: 6853.75km
偏心率: 0.0004631
轨道倾角: 97.402°
近地点辐角 54.874°
升交点赤经 12.422°
平近点角 305.293°
近地点: 472.441km
远地点: 478.789km
周期: 94.114分钟
每日圈数: 15.30067
详细信息
使用方式:
暂无
2D轨道图
3D轨道图
轨道高度分析图
轨道倾角分析图
轨道综合分析图
查看轨道综合分析图